| time (UTC) | temp F | wind direction | speed MPH | gust MPH | rain 1hr in | rain 24hr in | rain mn in | humidity % | barometer mb |
| 20260906161140 | 58 | 346 | 1.0 | 2.0 | 0.02 | 0.04 | 0.04 | 78 | 1018.3 |
| 20260906160640 | 57 | 359 | 2.0 | 2.0 | 0.05 | 0.04 | 0.04 | 82 | 1018.3 |
| 20260906160138 | 56 | 310 | 1.0 | 1.0 | 0.02 | 0.04 | 0.04 | 83 | 1018.6 |
| 20260906155631 | 56 | 269 | 0.0 | 2.0 | 0.02 | 0.03 | 0.03 | 83 | 1018.6 |
| 20260906155127 | 56 | 23 | 2.0 | 2.0 | 0.02 | 0.03 | 0.03 | 79 | 1018.2 |
| 20260906154621 | 56 | 14 | 3.0 | 6.0 | 0.00 | 0.03 | 0.03 | 75 | 1018.6 |
| 20260906154120 | 56 | 290 | 0.0 | 1.0 | 0.00 | 0.03 | 0.03 | 76 | 1018.5 |
| 20260906153619 | 56 | 287 | 2.0 | 2.0 | 0.00 | 0.03 | 0.03 | 76 | 1018.5 |
| 20260906153114 | 57 | 50 | 0.0 | 2.0 | 0.00 | 0.03 | 0.03 | 73 | 1018.5 |
| 20260906152610 | 57 | 267 | 0.0 | 2.0 | 0.00 | 0.03 | 0.03 | 73 | 1018.3 |
| 20260906152103 | 57 | 243 | 2.0 | 2.0 | 0.00 | 0.03 | 0.03 | 71 | 1018.3 |
| 20260906151558 | 57 | 293 | 1.0 | 1.0 | 0.00 | 0.03 | 0.03 | 70 | 1018.4 |
| 20260906151054 | 56 | 24 | 0.0 | 2.0 | 0.00 | 0.03 | 0.03 | 68 | 1017.8 |
| 20260906150549 | 56 | 303 | 1.0 | 2.0 | 0.00 | 0.03 | 0.03 | 70 | 1018.2 |
| 20260906150044 | 56 | 344 | 2.0 | 2.0 | 0.00 | 0.03 | 0.03 | 69 | 1018.1 |
| 20260906145543 | 56 | 294 | 0.0 | 0.0 | 0.00 | 0.03 | 0.03 | 68 | 1017.9 |
| 20260906145038 | 56 | 312 | 0.0 | 2.0 | 0.00 | 0.03 | 0.03 | 68 | 1017.9 |
| 20260906144532 | 55 | 0 | 0.0 | 0.0 | 0.00 | 0.03 | 0.03 | 70 | 1018.2 |
| 20260906144028 | 55 | 36 | 0.0 | 1.0 | 0.00 | 0.03 | 0.03 | 67 | 1018.1 |
| 20260906143522 | 54 | 352 | 0.0 | 2.0 | 0.00 | 0.03 | 0.03 | 69 | 1017.8 |
| 20260906143014 | 54 | 257 | 2.0 | 2.0 | 0.00 | 0.03 | 0.03 | 70 | 1017.8 |
| 20260906142513 | 53 | 236 | 0.0 | 3.0 | 0.00 | 0.03 | 0.03 | 70 | 1017.9 |
| 20260906142008 | 53 | 215 | 1.0 | 2.0 | 0.00 | 0.03 | 0.03 | 71 | 1017.8 |
| 20260906141501 | 53 | 52 | 1.0 | 2.0 | 0.00 | 0.03 | 0.03 | 70 | 1017.7 |
| 20260906140956 | 53 | 315 | 0.0 | 2.0 | 0.00 | 0.03 | 0.03 | 69 | 1017.6 |
| 20260906140451 | 56 | 267 | 1.0 | 2.0 | 0.00 | 0.03 | 0.03 | 65 | 1017.5 |
| 20260906135949 | 58 | 2 | 1.0 | 5.0 | 0.00 | 0.03 | 0.03 | 59 | 1017.7 |
| 20260906135448 | 58 | 54 | 3.0 | 5.0 | 0.00 | 0.03 | 0.03 | 58 | 1017.2 |
| 20260906134943 | 58 | 321 | 4.0 | 13.0 | 0.00 | 0.03 | 0.03 | 58 | 1017.1 |
| 20260906134439 | 58 | 37 | 7.0 | 12.0 | 0.00 | 0.03 | 0.03 | 58 | 1017.0 |
| 20260906133938 | 58 | 44 | 4.0 | 12.0 | 0.00 | 0.03 | 0.03 | 59 | 1016.9 |
| 20260906133434 | 57 | 53 | 7.0 | 10.0 | 0.00 | 0.03 | 0.03 | 59 | 1016.6 |
| 20260906132930 | 57 | 26 | 8.0 | 12.0 | 0.00 | 0.03 | 0.03 | 59 | 1016.6 |
| 20260906132431 | 57 | 28 | 4.0 | 10.0 | 0.00 | 0.03 | 0.03 | 59 | 1016.8 |
| 20260906131926 | 57 | 89 | 3.0 | 13.0 | 0.00 | 0.03 | 0.03 | 59 | 1016.5 |
| 20260906131421 | 57 | 108 | 6.0 | 10.0 | 0.00 | 0.03 | 0.03 | 60 | 1016.8 |
| 20260906130917 | 56 | 55 | 6.0 | 7.0 | 0.00 | 0.03 | 0.03 | 60 | 1017.0 |
| 20260906130416 | 56 | 57 | 2.0 | 7.0 | 0.00 | 0.03 | 0.03 | 60 | 1016.8 |
| 20260906125911 | 56 | 45 | 2.0 | 6.0 | 0.00 | 0.03 | 0.03 | 60 | 1016.8 |
| 20260906125408 | 56 | 43 | 4.0 | 5.0 | 0.00 | 0.03 | 0.03 | 61 | 1016.9 |
| 20260906124903 | 56 | 66 | 2.0 | 9.0 | 0.00 | 0.03 | 0.03 | 60 | 1016.4 |
| 20260906124359 | 56 | 46 | 4.0 | 11.0 | 0.00 | 0.03 | 0.03 | 60 | 1016.5 |
| 20260906123858 | 56 | 74 | 5.0 | 6.0 | 0.05 | 0.03 | 0.03 | 61 | 1016.4 |
| 20260906123352 | 56 | 26 | 4.0 | 6.0 | 0.12 | 0.03 | 0.03 | 61 | 1016.5 |
| 20260906122847 | 55 | 43 | 4.0 | 6.0 | 0.12 | 0.02 | 0.02 | 61 | 1016.5 |
| 20260906122342 | 55 | 56 | 4.0 | 4.0 | 0.05 | 0.01 | 0.01 | 62 | 1016.5 |
| 20260906121838 | 55 | 17 | 4.0 | 7.0 | 0.00 | 0.00 | 0.00 | 61 | 1016.6 |
| 20260906121334 | 56 | 39 | 6.0 | 9.0 | 0.00 | 0.00 | 0.00 | 60 | 1016.4 |
| 20260906120830 | 55 | 68 | 4.0 | 9.0 | 0.00 | 0.00 | 0.00 | 60 | 1016.6 |
| 20260906120326 | 55 | 56 | 5.0 | 10.0 | 0.00 | 0.00 | 0.00 | 60 | 1016.2 |
| 20260906115822 | 55 | 21 | 4.0 | 9.0 | 0.00 | 0.00 | 0.00 | 61 | 1016.4 |
| 20260906115317 | 55 | 32 | 6.0 | 8.0 | 0.00 | 0.00 | 0.00 | 61 | 1016.2 |
| 20260906114816 | 55 | 39 | 8.0 | 10.0 | 0.00 | 0.00 | 0.00 | 60 | 1016.2 |
| 20260906114311 | 55 | 78 | 5.0 | 11.0 | 0.00 | 0.00 | 0.00 | 60 | 1016.2 |
| 20260906113806 | 55 | 40 | 5.0 | 5.0 | 0.00 | 0.00 | 0.00 | 61 | 1016.2 |
| 20260906113305 | 55 | 26 | 3.0 | 14.0 | 0.00 | 0.00 | 0.00 | 59 | 1016.2 |
| 20260906112800 | 55 | 70 | 3.0 | 11.0 | 0.00 | 0.00 | 0.00 | 60 | 1016.2 |
| 20260906112251 | 55 | 52 | 9.0 | 12.0 | 0.00 | 0.00 | 0.00 | 60 | 1016.1 |
| 20260906111751 | 56 | 54 | 9.0 | 13.0 | 0.00 | 0.00 | 0.00 | 58 | 1015.8 |
| 20260906111250 | 55 | 88 | 5.0 | 9.0 | 0.00 | 0.00 | 0.00 | 58 | 1015.9 |
| 20260906110745 | 55 | 97 | 5.0 | 13.0 | 0.00 | 0.00 | 0.00 | 58 | 1016.2 |
| 20260906110241 | 55 | 68 | 6.0 | 10.0 | 0.00 | 0.00 | 0.00 | 59 | 1016.2 |
| 20260906105740 | 55 | 70 | 5.0 | 9.0 | 0.00 | 0.00 | 0.00 | 59 | 1016.3 |
| 20260906105236 | 55 | 84 | 3.0 | 11.0 | 0.00 | 0.00 | 0.00 | 58 | 1016.4 |
| 20260906104731 | 55 | 50 | 5.0 | 9.0 | 0.00 | 0.00 | 0.00 | 58 | 1015.9 |
| 20260906104230 | 55 | 41 | 4.0 | 12.0 | 0.00 | 0.00 | 0.00 | 58 | 1015.9 |
| 20260906103728 | 55 | 83 | 4.0 | 8.0 | 0.00 | 0.00 | 0.00 | 58 | 1016.1 |
| 20260906103222 | 55 | 94 | 4.0 | 10.0 | 0.00 | 0.00 | 0.00 | 58 | 1016.1 |
| 20260906102718 | 56 | 54 | 10.0 | 13.0 | 0.00 | 0.00 | 0.00 | 57 | 1015.8 |
| 20260906102217 | 55 | 73 | 6.0 | 12.0 | 0.00 | 0.00 | 0.00 | 58 | 1016.1 |
| 20260906101712 | 56 | 73 | 5.0 | 11.0 | 0.00 | 0.00 | 0.00 | 57 | 1015.9 |
| 20260906101207 | 56 | 60 | 2.0 | 10.0 | 0.00 | 0.00 | 0.00 | 56 | 1015.9 |
| 20260906100702 | 56 | 65 | 5.0 | 8.0 | 0.00 | 0.00 | 0.00 | 57 | 1015.9 |
| 20260906100157 | 56 | 91 | 7.0 | 12.0 | 0.00 | 0.00 | 0.00 | 56 | 1015.9 |
| 20260906095652 | 56 | 74 | 3.0 | 9.0 | 0.00 | 0.00 | 0.00 | 56 | 1015.9 |
| 20260906095147 | 56 | 33 | 3.0 | 11.0 | 0.00 | 0.00 | 0.00 | 57 | 1016.2 |
| 20260906094646 | 56 | 73 | 3.0 | 9.0 | 0.00 | 0.00 | 0.00 | 57 | 1016.2 |
| 20260906094142 | 56 | 59 | 9.0 | 10.0 | 0.00 | 0.00 | 0.00 | 56 | 1016.1 |
| 20260906093638 | 56 | 110 | 5.0 | 9.0 | 0.00 | 0.00 | 0.00 | 56 | 1016.1 |
| 20260906093138 | 56 | 69 | 3.0 | 9.0 | 0.00 | 0.00 | 0.00 | 56 | 1016.3 |
| 20260906092632 | 56 | 66 | 6.0 | 10.0 | 0.00 | 0.00 | 0.00 | 56 | 1016.2 |
| 20260906092127 | 57 | 55 | 7.0 | 7.0 | 0.00 | 0.00 | 0.00 | 55 | 1016.2 |
| 20260906091624 | 56 | 68 | 3.0 | 10.0 | 0.00 | 0.00 | 0.00 | 56 | 1016.1 |
| 20260906091120 | 56 | 44 | 7.0 | 7.0 | 0.00 | 0.00 | 0.00 | 56 | 1016.1 |
| 20260906090615 | 57 | 115 | 7.0 | 8.0 | 0.00 | 0.00 | 0.00 | 55 | 1016.4 |
| 20260906090115 | 57 | 51 | 4.0 | 9.0 | 0.00 | 0.00 | 0.00 | 55 | 1016.2 |
| 20260906085614 | 57 | 64 | 5.0 | 9.0 | 0.00 | 0.00 | 0.00 | 55 | 1015.9 |
| 20260906085108 | 57 | 80 | 3.0 | 6.0 | 0.00 | 0.00 | 0.00 | 55 | 1016.2 |
| 20260906084603 | 57 | 54 | 4.0 | 7.0 | 0.00 | 0.00 | 0.00 | 55 | 1016.1 |
| 20260906084102 | 57 | 55 | 6.0 | 9.0 | 0.00 | 0.00 | 0.00 | 54 | 1016.2 |
| 20260906083558 | 57 | 95 | 5.0 | 8.0 | 0.00 | 0.00 | 0.00 | 54 | 1016.2 |
| 20260906083057 | 57 | 58 | 3.0 | 7.0 | 0.00 | 0.00 | 0.00 | 54 | 1016.3 |
| 20260906082552 | 57 | 59 | 6.0 | 7.0 | 0.00 | 0.00 | 0.00 | 54 | 1016.2 |
| 20260906082048 | 57 | 59 | 4.0 | 11.0 | 0.00 | 0.00 | 0.00 | 55 | 1016.2 |
| 20260906081543 | 59 | 55 | 2.0 | 9.0 | 0.00 | 0.00 | 0.00 | 53 | 1016.6 |
| 20260906081033 | 58 | 48 | 6.0 | 10.0 | 0.00 | 0.00 | 0.00 | 53 | 1016.3 |
| 20260906080530 | 58 | 104 | 4.0 | 7.0 | 0.00 | 0.00 | 0.00 | 54 | 1016.1 |
| 20260906080025 | 58 | 61 | 5.0 | 10.0 | 0.00 | 0.00 | 0.00 | 53 | 1015.9 |
| 20260906075520 | 58 | 44 | 6.0 | 8.0 | 0.00 | 0.00 | 0.00 | 54 | 1016.4 |
| 20260906075015 | 59 | 60 | 4.0 | 9.0 | 0.00 | 0.00 | 0.00 | 53 | 1016.4 |
| 20260906074509 | 59 | 62 | 4.0 | 8.0 | 0.00 | 0.00 | 0.00 | 53 | 1016.5 |
| 20260906074008 | 59 | 69 | 2.0 | 6.0 | 0.00 | 0.00 | 0.00 | 53 | 1016.3 |
| 20260906073503 | 59 | 60 | 4.0 | 8.0 | 0.00 | 0.00 | 0.00 | 54 | 1016.3 |
| 20260906072959 | 58 | 100 | 4.0 | 10.0 | 0.00 | 0.00 | 0.00 | 54 | 1016.3 |
| 20260906072454 | 59 | 69 | 4.0 | 9.0 | 0.00 | 0.00 | 0.00 | 54 | 1016.3 |
| 20260906071950 | 59 | 92 | 5.0 | 6.0 | 0.00 | 0.00 | 0.00 | 53 | 1016.5 |
| 20260906071446 | 59 | 58 | 3.0 | 7.0 | 0.00 | 0.00 | 0.00 | 53 | 1016.4 |
| 20260906070941 | 59 | 47 | 5.0 | 6.0 | 0.00 | 0.00 | 0.00 | 54 | 1016.3 |
| 20260906070437 | 59 | 62 | 2.0 | 9.0 | 0.00 | 0.00 | 0.00 | 52 | 1016.5 |
| 20260906065932 | 60 | 46 | 4.0 | 8.0 | 0.00 | 0.00 | 0.00 | 52 | 1016.4 |
| 20260906065427 | 59 | 59 | 5.0 | 8.0 | 0.00 | 0.00 | 0.00 | 53 | 1016.6 |
| 20260906064922 | 59 | 51 | 5.0 | 10.0 | 0.00 | 0.00 | 0.00 | 54 | 1016.2 |
| 20260906064418 | 59 | 56 | 6.0 | 6.0 | 0.00 | 0.00 | 0.00 | 53 | 1016.5 |
| 20260906063913 | 59 | 49 | 4.0 | 9.0 | 0.00 | 0.00 | 0.00 | 53 | 1016.4 |
| 20260906063408 | 59 | 59 | 4.0 | 8.0 | 0.00 | 0.00 | 0.00 | 53 | 1016.3 |
| 20260906062903 | 60 | 61 | 5.0 | 9.0 | 0.00 | 0.00 | 0.00 | 53 | 1016.4 |
| 20260906062402 | 59 | 52 | 5.0 | 8.0 | 0.00 | 0.00 | 0.00 | 54 | 1016.4 |
| 20260906061858 | 59 | 89 | 4.0 | 7.0 | 0.00 | 0.00 | 0.00 | 54 | 1016.4 |
| 20260906061354 | 60 | 42 | 8.0 | 9.0 | 0.00 | 0.00 | 0.00 | 53 | 1016.3 |
| 20260906060848 | 60 | 64 | 4.0 | 8.0 | 0.00 | 0.00 | 0.00 | 53 | 1016.3 |
| 20260906060346 | 60 | 57 | 3.0 | 5.0 | 0.00 | 0.00 | 0.00 | 52 | 1016.3 |
| 20260906055842 | 60 | 53 | 4.0 | 8.0 | 0.00 | 0.00 | 0.00 | 52 | 1016.5 |
| 20260906055337 | 60 | 51 | 3.0 | 10.0 | 0.00 | 0.00 | 0.00 | 53 | 1016.6 |
| 20260906054832 | 61 | 48 | 5.0 | 7.0 | 0.00 | 0.00 | 0.00 | 52 | 1016.5 |
| 20260906054327 | 61 | 52 | 6.0 | 7.0 | 0.00 | 0.00 | 0.00 | 52 | 1016.6 |
| 20260906053824 | 60 | 54 | 4.0 | 4.0 | 0.00 | 0.00 | 0.00 | 53 | 1016.5 |
| 20260906053319 | 60 | 91 | 3.0 | 5.0 | 0.00 | 0.00 | 0.00 | 53 | 1016.6 |
| 20260906052814 | 60 | 36 | 2.0 | 6.0 | 0.00 | 0.00 | 0.00 | 53 | 1016.4 |
| 20260906052311 | 60 | 88 | 3.0 | 4.0 | 0.00 | 0.00 | 0.00 | 53 | 1016.6 |
| 20260906051808 | 61 | 72 | 3.0 | 4.0 | 0.00 | 0.00 | 0.00 | 53 | 1016.4 |
| 20260906051307 | 61 | 74 | 2.0 | 3.0 | 0.00 | 0.00 | 0.00 | 53 | 1016.4 |
| 20260906050802 | 61 | 99 | 3.0 | 4.0 | 0.00 | 0.00 | 0.00 | 53 | 1016.6 |
| 20260906050258 | 61 | 52 | 3.0 | 5.0 | 0.00 | 0.00 | 0.00 | 52 | 1016.4 |
| 20260906045756 | 62 | 75 | 2.0 | 3.0 | 0.00 | 0.00 | 0.00 | 52 | 1016.5 |
| 20260906045251 | 62 | 58 | 3.0 | 4.0 | 0.00 | 0.00 | 0.00 | 51 | 1016.4 |
| 20260906044747 | 62 | 75 | 2.0 | 4.0 | 0.00 | 0.00 | 0.00 | 52 | 1016.3 |
| 20260906044242 | 62 | 72 | 2.0 | 4.0 | 0.00 | 0.00 | 0.00 | 52 | 1016.5 |
| 20260906043738 | 62 | 1 | 1.0 | 3.0 | 0.00 | 0.00 | 0.00 | 52 | 1016.5 |
| 20260906043234 | 62 | 39 | 1.0 | 3.0 | 0.00 | 0.00 | 0.00 | 52 | 1016.6 |
| 20260906042733 | 62 | 84 | 2.0 | 3.0 | 0.00 | 0.00 | 0.00 | 52 | 1016.6 |
| 20260906042232 | 62 | 41 | 3.0 | 5.0 | 0.00 | 0.00 | 0.00 | 52 | 1016.2 |
| 20260906041728 | 62 | 16 | 2.0 | 2.0 | 0.00 | 0.00 | 0.00 | 52 | 1016.4 |
| 20260906041223 | 62 | 38 | 2.0 | 4.0 | 0.00 | 0.00 | 0.00 | 52 | 1016.3 |
| 20260906040719 | 62 | 56 | 3.0 | 4.0 | 0.00 | 0.00 | 0.00 | 53 | 1016.3 |
| 20260906040214 | 63 | 28 | 3.0 | 4.0 | 0.00 | 0.00 | 0.00 | 52 | 1016.4 |
| 20260906035709 | 63 | 22 | 2.0 | 4.0 | 0.00 | 0.00 | 0.00 | 52 | 1016.5 |
| 20260906035204 | 63 | 336 | 0.0 | 2.0 | 0.00 | 0.00 | 0.00 | 54 | 1016.3 |
| 20260906034659 | 63 | 43 | 2.0 | 3.0 | 0.00 | 0.00 | 0.00 | 53 | 1016.2 |
| 20260906034154 | 63 | 45 | 3.0 | 3.0 | 0.00 | 0.00 | 0.00 | 51 | 1016.3 |
| 20260906033649 | 64 | 37 | 0.0 | 2.0 | 0.00 | 0.00 | 0.00 | 53 | 1016.2 |
| 20260906033144 | 63 | 39 | 0.0 | 2.0 | 0.00 | 0.00 | 0.00 | 54 | 1016.2 |
| 20260906032641 | 64 | 347 | 1.0 | 2.0 | 0.00 | 0.00 | 0.00 | 53 | 1016.2 |
| 20260906032141 | 64 | 313 | 2.0 | 2.0 | 0.00 | 0.00 | 0.00 | 54 | 1016.1 |
| 20260906031636 | 65 | 20 | 2.0 | 2.0 | 0.00 | 0.00 | 0.00 | 51 | 1016.1 |
| 20260906031131 | 65 | 40 | 2.0 | 2.0 | 0.00 | 0.00 | 0.00 | 49 | 1015.9 |
| 20260906030630 | 65 | 16 | 2.0 | 2.0 | 0.00 | 0.00 | 0.00 | 49 | 1015.8 |
| 20260906030126 | 66 | 358 | 2.0 | 2.0 | 0.00 | 0.00 | 0.00 | 49 | 1015.9 |
| 20260906025625 | 66 | 325 | 2.0 | 2.0 | 0.00 | 0.00 | 0.00 | 50 | 1015.7 |
| 20260906025124 | 67 | 12 | 2.0 | 2.0 | 0.00 | 0.00 | 0.00 | 48 | 1015.6 |
| 20260906024619 | 67 | 35 | 2.0 | 2.0 | 0.00 | 0.00 | 0.00 | 47 | 1015.6 |
| 20260906024113 | 67 | 45 | 2.0 | 2.0 | 0.00 | 0.00 | 0.00 | 45 | 1015.7 |
| 20260906023609 | 68 | 11 | 1.0 | 2.0 | 0.00 | 0.00 | 0.00 | 45 | 1015.6 |
| 20260906023103 | 69 | 2 | 2.0 | 2.0 | 0.00 | 0.00 | 0.00 | 43 | 1015.6 |
| 20260906022559 | 69 | 26 | 1.0 | 1.0 | 0.00 | 0.00 | 0.00 | 42 | 1015.4 |
| 20260906022055 | 70 | 3 | 1.0 | 2.0 | 0.00 | 0.00 | 0.00 | 42 | 1015.4 |
| 20260906021550 | 71 | 353 | 2.0 | 2.0 | 0.00 | 0.00 | 0.00 | 41 | 1015.5 |
| 20260906021049 | 72 | 212 | 0.0 | 1.0 | 0.00 | 0.00 | 0.00 | 39 | 1015.2 |
| 20260906020549 | 72 | 336 | 0.0 | 1.0 | 0.00 | 0.00 | 0.00 | 39 | 1015.0 |
| 20260906020048 | 73 | 315 | 1.0 | 2.0 | 0.00 | 0.00 | 0.00 | 38 | 1015.4 |
| 20260906015547 | 74 | 330 | 2.0 | 2.0 | 0.00 | 0.00 | 0.00 | 37 | 1015.1 |
| 20260906015042 | 74 | 335 | 1.0 | 3.0 | 0.00 | 0.00 | 0.00 | 37 | 1015.5 |
| 20260906014542 | 74 | 217 | 1.0 | 4.0 | 0.00 | 0.00 | 0.00 | 35 | 1015.2 |
| 20260906014038 | 74 | 284 | 0.0 | 2.0 | 0.00 | 0.00 | 0.00 | 36 | 1015.2 |
| 20260906013533 | 75 | 323 | 2.0 | 2.0 | 0.00 | 0.00 | 0.00 | 37 | 1015.4 |
| 20260906013028 | 76 | 162 | 0.0 | 2.0 | 0.00 | 0.00 | 0.00 | 35 | 1015.5 |
| 20260906012523 | 77 | 33 | 2.0 | 4.0 | 0.00 | 0.00 | 0.00 | 34 | 1015.4 |
| 20260906012023 | 77 | 286 | 2.0 | 4.0 | 0.00 | 0.00 | 0.00 | 34 | 1015.2 |
| 20260906011519 | 77 | 265 | 4.0 | 6.0 | 0.00 | 0.00 | 0.00 | 34 | 1015.4 |
| 20260906011019 | 77 | 276 | 2.0 | 4.0 | 0.00 | 0.00 | 0.00 | 35 | 1015.1 |
| 20260906010514 | 78 | 315 | 1.0 | 7.0 | 0.00 | 0.00 | 0.00 | 33 | 1015.2 |
| 20260906010011 | 78 | 296 | 3.0 | 4.0 | 0.00 | 0.00 | 0.00 | 34 | 1015.1 |
| 20260906005509 | 78 | 256 | 2.0 | 4.0 | 0.00 | 0.00 | 0.00 | 33 | 1015.2 |
| 20260906005008 | 78 | 298 | 3.0 | 4.0 | 0.00 | 0.00 | 0.00 | 32 | 1015.2 |
| 20260906004503 | 79 | 263 | 3.0 | 4.0 | 0.00 | 0.00 | 0.00 | 32 | 1015.2 |
| 20260906003958 | 79 | 257 | 3.0 | 6.0 | 0.00 | 0.00 | 0.00 | 32 | 1015.0 |
| 20260906003453 | 79 | 333 | 0.0 | 6.0 | 0.00 | 0.00 | 0.00 | 33 | 1015.1 |
| 20260906002949 | 80 | 295 | 2.0 | 6.0 | 0.00 | 0.00 | 0.00 | 32 | 1015.4 |
| 20260906002448 | 81 | 199 | 1.0 | 6.0 | 0.00 | 0.00 | 0.00 | 30 | 1015.0 |
| 20260906001943 | 82 | 297 | 4.0 | 6.0 | 0.00 | 0.00 | 0.00 | 29 | 1015.1 |
| 20260906001439 | 82 | 245 | 2.0 | 6.0 | 0.00 | 0.00 | 0.00 | 30 | 1015.1 |
| 20260906000928 | 83 | 279 | 2.0 | 10.0 | 0.00 | 0.00 | 0.00 | 30 | 1015.2 |
| 20260906000425 | 83 | 256 | 3.0 | 5.0 | 0.00 | 0.00 | 0.00 | 29 | 1015.1 |
| 20260905235918 | 83 | 323 | 4.0 | 4.0 | 0.00 | 0.00 | 0.00 | 30 | 1015.1 |
| 20260905235413 | 83 | 303 | 2.0 | 6.0 | 0.00 | 0.00 | 0.00 | 29 | 1015.4 |
| 20260905234908 | 83 | 249 | 4.0 | 10.0 | 0.00 | 0.00 | 0.00 | 29 | 1015.1 |
| 20260905234403 | 83 | 289 | 4.0 | 7.0 | 0.00 | 0.00 | 0.00 | 28 | 1015.2 |
| 20260905233858 | 84 | 276 | 2.0 | 9.0 | 0.00 | 0.00 | 0.00 | 27 | 1015.2 |
| 20260905233352 | 85 | 253 | 3.0 | 4.0 | 0.00 | 0.00 | 0.00 | 28 | 1015.0 |
| 20260905232847 | 84 | 232 | 8.0 | 9.0 | 0.00 | 0.00 | 0.00 | 27 | 1015.2 |
| 20260905232343 | 84 | 148 | 2.0 | 6.0 | 0.00 | 0.00 | 0.00 | 28 | 1015.2 |
| 20260905231839 | 84 | 216 | 4.0 | 5.0 | 0.00 | 0.00 | 0.00 | 27 | 1015.2 |
| 20260905231338 | 84 | 248 | 4.0 | 6.0 | 0.00 | 0.00 | 0.00 | 29 | 1015.1 |
| 20260905230835 | 84 | 261 | 5.0 | 18.0 | 0.00 | 0.00 | 0.00 | 28 | 1015.4 |
| 20260905230332 | 84 | 314 | 3.0 | 11.0 | 0.00 | 0.00 | 0.00 | 28 | 1014.9 |
| 20260905225832 | 84 | 228 | 5.0 | 11.0 | 0.00 | 0.00 | 0.00 | 28 | 1015.1 |
| 20260905225327 | 85 | 241 | 3.0 | 7.0 | 0.00 | 0.00 | 0.00 | 26 | 1015.1 |
| 20260905224822 | 85 | 252 | 2.0 | 6.0 | 0.00 | 0.00 | 0.00 | 26 | 1015.1 |
| 20260905224318 | 84 | 215 | 5.0 | 12.0 | 0.00 | 0.00 | 0.00 | 26 | 1015.1 |
| 20260905223818 | 86 | 23 | 1.0 | 4.0 | 0.00 | 0.00 | 0.00 | 28 | 1015.1 |
| 20260905223315 | 85 | 262 | 4.0 | 6.0 | 0.00 | 0.00 | 0.00 | 26 | 1015.4 |
| 20260905222810 | 86 | 210 | 6.0 | 6.0 | 0.00 | 0.00 | 0.00 | 27 | 1015.4 |
| 20260905222309 | 85 | 255 | 4.0 | 7.0 | 0.00 | 0.00 | 0.00 | 27 | 1015.5 |
| 20260905221805 | 85 | 277 | 4.0 | 9.0 | 0.00 | 0.00 | 0.00 | 27 | 1015.4 |
| 20260905221302 | 85 | 281 | 2.0 | 9.0 | 0.00 | 0.00 | 0.00 | 27 | 1015.6 |
| 20260905220757 | 86 | 270 | 5.0 | 9.0 | 0.00 | 0.00 | 0.00 | 27 | 1015.4 |
| 20260905220254 | 86 | 271 | 2.0 | 4.0 | 0.00 | 0.00 | 0.00 | 28 | 1015.6 |
| 20260905215753 | 85 | 288 | 2.0 | 8.0 | 0.00 | 0.00 | 0.00 | 27 | 1015.9 |
| 20260905215248 | 86 | 180 | 2.0 | 6.0 | 0.00 | 0.00 | 0.00 | 27 | 1015.7 |
| 20260905214744 | 86 | 268 | 4.0 | 4.0 | 0.00 | 0.00 | 0.00 | 29 | 1015.8 |
| 20260905214240 | 86 | 290 | 4.0 | 6.0 | 0.00 | 0.00 | 0.00 | 27 | 1015.9 |
| 20260905213735 | 85 | 195 | 4.0 | 10.0 | 0.00 | 0.00 | 0.00 | 26 | 1016.1 |
| 20260905213231 | 85 | 302 | 4.0 | 8.0 | 0.00 | 0.00 | 0.00 | 28 | 1015.7 |
| 20260905212726 | 86 | 230 | 3.0 | 6.0 | 0.00 | 0.00 | 0.00 | 27 | 1015.9 |
| 20260905212225 | 84 | 263 | 4.0 | 11.0 | 0.00 | 0.00 | 0.00 | 27 | 1016.3 |
| 20260905211719 | 86 | 292 | 3.0 | 7.0 | 0.00 | 0.00 | 0.00 | 27 | 1015.9 |
| 20260905211215 | 84 | 326 | 2.0 | 8.0 | 0.00 | 0.00 | 0.00 | 27 | 1016.3 |
| 20260905210711 | 85 | 205 | 3.0 | 12.0 | 0.00 | 0.00 | 0.00 | 27 | 1016.1 |
| 20260905210206 | 84 | 122 | 1.0 | 10.0 | 0.00 | 0.00 | 0.00 | 27 | 1016.1 |
| 20260905205704 | 84 | 239 | 5.0 | 11.0 | 0.00 | 0.00 | 0.00 | 28 | 1016.3 |
| 20260905205159 | 85 | 298 | 6.0 | 9.0 | 0.00 | 0.00 | 0.00 | 26 | 1016.3 |
| 20260905204658 | 84 | 207 | 5.0 | 5.0 | 0.00 | 0.00 | 0.00 | 28 | 1016.2 |
| 20260905204153 | 84 | 265 | 6.0 | 14.0 | 0.00 | 0.00 | 0.00 | 29 | 1016.5 |
| 20260905203648 | 84 | 230 | 4.0 | 11.0 | 0.00 | 0.00 | 0.00 | 27 | 1016.6 |
| 20260905203144 | 84 | 249 | 5.0 | 9.0 | 0.00 | 0.00 | 0.00 | 28 | 1016.4 |
| 20260905202640 | 84 | 232 | 9.0 | 10.0 | 0.00 | 0.00 | 0.00 | 27 | 1016.2 |
| 20260905202135 | 85 | 89 | 1.0 | 4.0 | 0.00 | 0.00 | 0.00 | 30 | 1016.5 |
| 20260905201630 | 84 | 273 | 5.0 | 6.0 | 0.00 | 0.00 | 0.00 | 28 | 1016.2 |
| 20260905201129 | 83 | 269 | 2.0 | 3.0 | 0.00 | 0.00 | 0.00 | 30 | 1016.8 |
| 20260905200625 | 82 | 269 | 3.0 | 6.0 | 0.00 | 0.00 | 0.00 | 31 | 1017.0 |
| 20260905200120 | 83 | 219 | 4.0 | 11.0 | 0.00 | 0.00 | 0.00 | 29 | 1016.8 |
| 20260905195619 | 83 | 247 | 6.0 | 8.0 | 0.00 | 0.00 | 0.00 | 30 | 1016.9 |
| 20260905195114 | 81 | 276 | 3.0 | 8.0 | 0.00 | 0.00 | 0.00 | 31 | 1017.0 |
| 20260905194614 | 83 | 198 | 2.0 | 6.0 | 0.00 | 0.00 | 0.00 | 30 | 1016.9 |
| 20260905194114 | 83 | 282 | 2.0 | 7.0 | 0.00 | 0.00 | 0.00 | 29 | 1017.0 |
| 20260905193608 | 82 | 258 | 4.0 | 9.0 | 0.00 | 0.00 | 0.00 | 30 | 1017.1 |
| 20260905193103 | 81 | 269 | 6.0 | 14.0 | 0.00 | 0.00 | 0.00 | 30 | 1017.4 |
| 20260905192559 | 82 | 255 | 7.0 | 8.0 | 0.00 | 0.00 | 0.00 | 29 | 1017.2 |
| 20260905192055 | 82 | 249 | 3.0 | 7.0 | 0.00 | 0.00 | 0.00 | 27 | 1017.1 |
| 20260905191554 | 82 | 234 | 6.0 | 7.0 | 0.00 | 0.00 | 0.00 | 30 | 1017.2 |
| 20260905191048 | 82 | 241 | 4.0 | 14.0 | 0.00 | 0.00 | 0.00 | 30 | 1017.2 |
| 20260905190546 | 81 | 258 | 4.0 | 7.0 | 0.00 | 0.00 | 0.00 | 32 | 1017.5 |
| 20260905190045 | 81 | 228 | 2.0 | 10.0 | 0.00 | 0.00 | 0.00 | 31 | 1017.7 |
| 20260905185544 | 81 | 274 | 5.0 | 9.0 | 0.00 | 0.00 | 0.00 | 31 | 1017.6 |
| 20260905185044 | 80 | 330 | 2.0 | 5.0 | 0.00 | 0.00 | 0.00 | 32 | 1017.6 |
| 20260905184538 | 80 | 285 | 4.0 | 14.0 | 0.00 | 0.00 | 0.00 | 33 | 1017.6 |
| 20260905184037 | 79 | 274 | 5.0 | 9.0 | 0.00 | 0.00 | 0.00 | 31 | 1017.8 |
| 20260905183532 | 81 | 202 | 10.0 | 15.0 | 0.00 | 0.00 | 0.00 | 31 | 1017.9 |
| 20260905183027 | 80 | 257 | 2.0 | 8.0 | 0.00 | 0.00 | 0.00 | 32 | 1017.9 |
| 20260905182527 | 79 | 298 | 2.0 | 10.0 | 0.00 | 0.00 | 0.00 | 34 | 1017.9 |
| 20260905182026 | 80 | 261 | 4.0 | 7.0 | 0.00 | 0.00 | 0.00 | 31 | 1017.8 |
| 20260905181521 | 80 | 196 | 2.0 | 11.0 | 0.00 | 0.00 | 0.00 | 31 | 1017.9 |
| 20260905181021 | 81 | 303 | 3.0 | 4.0 | 0.00 | 0.00 | 0.00 | 33 | 1018.1 |
| 20260905180515 | 80 | 332 | 4.0 | 5.0 | 0.00 | 0.00 | 0.00 | 32 | 1017.9 |
| 20260905180011 | 80 | 285 | 2.0 | 4.0 | 0.00 | 0.00 | 0.00 | 34 | 1018.1 |
| 20260905175510 | 79 | 301 | 4.0 | 6.0 | 0.00 | 0.00 | 0.00 | 33 | 1017.9 |
| 20260905175006 | 79 | 271 | 2.0 | 5.0 | 0.00 | 0.00 | 0.00 | 33 | 1018.1 |
| 20260905174501 | 77 | 271 | 6.0 | 9.0 | 0.00 | 0.00 | 0.00 | 34 | 1017.8 |
| 20260905173957 | 79 | 208 | 6.0 | 6.0 | 0.00 | 0.00 | 0.00 | 32 | 1018.1 |
| 20260905173453 | 78 | 348 | 2.0 | 5.0 | 0.00 | 0.00 | 0.00 | 34 | 1018.1 |
| 20260905172948 | 78 | 317 | 4.0 | 6.0 | 0.00 | 0.00 | 0.00 | 33 | 1018.1 |
| 20260905172446 | 78 | 291 | 4.0 | 4.0 | 0.00 | 0.00 | 0.00 | 34 | 1018.1 |
| 20260905171942 | 78 | 123 | 2.0 | 7.0 | 0.00 | 0.00 | 0.00 | 32 | 1018.2 |
| 20260905171438 | 78 | 284 | 2.0 | 4.0 | 0.00 | 0.00 | 0.00 | 33 | 1018.2 |
| 20260905170934 | 78 | 180 | 2.0 | 4.0 | 0.00 | 0.00 | 0.00 | 31 | 1018.1 |
| 20260905170430 | 77 | 246 | 3.0 | 4.0 | 0.00 | 0.00 | 0.00 | 33 | 1018.1 |
| 20260905165930 | 77 | 312 | 3.0 | 3.0 | 0.00 | 0.00 | 0.00 | 35 | 1018.1 |
| 20260905165425 | 77 | 298 | 2.0 | 3.0 | 0.00 | 0.00 | 0.00 | 34 | 1017.9 |
| 20260905164920 | 77 | 285 | 3.0 | 3.0 | 0.00 | 0.00 | 0.00 | 32 | 1017.9 |
| 20260905164414 | 76 | 267 | 2.0 | 4.0 | 0.00 | 0.00 | 0.00 | 35 | 1018.2 |
| 20260905163909 | 75 | 298 | 3.0 | 4.0 | 0.00 | 0.00 | 0.00 | 33 | 1017.8 |
| 20260905163406 | 75 | 264 | 2.0 | 4.0 | 0.00 | 0.00 | 0.00 | 32 | 1017.6 |
| 20260905162902 | 78 | 291 | 2.0 | 2.0 | 0.00 | 0.00 | 0.00 | 32 | 1017.8 |
| 20260905162356 | 77 | 345 | 2.0 | 2.0 | 0.00 | 0.00 | 0.00 | 33 | 1017.7 |
| 20260905161851 | 76 | 284 | 1.0 | 1.0 | 0.00 | 0.00 | 0.00 | 32 | 1017.8 |